Satellite: PO-28
Catalog number: 22829
Epoch time:      08142.93590088
Element set:    0951
Inclination:      098.3628 deg
RA of node:       105.9752 deg
Eccentricity:    0.0009126
Arg of perigee:   311.7023 deg
Mean anomaly:     048.3399 deg
Mean motion:   14.30189155 rev/day
Decay rate:        1.4e-07 rev/day^2
Epoch rev:           76437
Checksum:              321

Satellite: GO-32
Catalog number: 25397
Epoch time:      08142.88600946
Element set:    0607
Inclination:      098.3650 deg
RA of node:       179.3449 deg
Eccentricity:    0.0000879
Arg of perigee:   006.8152 deg
Mean anomaly:     353.3016 deg
Mean motion:   14.23143173 rev/day
Decay rate:       -8.4e-07 rev/day^2
Epoch rev:           51247
Checksum:              307

Satellite: MO-46
Catalog number: 26548
Epoch time:      08142.73757437
Element set:    0105
Inclination:      064.5576 deg
RA of node:       212.1164 deg
Eccentricity:    0.0026963
Arg of perigee:   327.6621 deg
Mean anomaly:     032.2839 deg
Mean motion:   14.83261289 rev/day
Decay rate:        6.3e-07 rev/day^2
Epoch rev:           41389
Checksum:              318

Satellite: NO-44
Catalog number: 26931
Epoch time:      08142.83922824
Element set:    0884
Inclination:      067.0537 deg
RA of node:       352.5342 deg
Eccentricity:    0.0006335
Arg of perigee:   276.7389 deg
Mean anomaly:     083.2961 deg
Mean motion:   14.29522366 rev/day
Decay rate:      -2.04e-06 rev/day^2
Epoch rev:           34664
Checksum:              322

Satellite: SO-50
Catalog number: 27607
Epoch time:      08143.45048594
Element set:     608
Inclination:      064.5569 deg
RA of node:       131.8000 deg
Eccentricity:    0.0085183
Arg of perigee:   284.6164 deg
Mean anomaly:     074.5522 deg
Mean motion:   14.71356405 rev/day
Decay rate:        4.1e-07 rev/day^2
Epoch rev:           29118
Checksum:              298

Satellite: CO-55
Catalog number: 27844
Epoch time:      08142.53118804
Element set:    0311
Inclination:      098.7148 deg
RA of node:       151.1686 deg
Eccentricity:    0.0009586
Arg of perigee:   188.0453 deg
Mean anomaly:     172.0582 deg
Mean motion:   14.20579892 rev/day
Decay rate:        5.1e-07 rev/day^2
Epoch rev:           25365
Checksum:              317

Satellite: CO-57
Catalog number: 27848
Epoch time:      08143.58233457
Element set:     262
Inclination:      098.7149 deg
RA of node:       151.3057 deg
Eccentricity:    0.0009232
Arg of perigee:   190.0812 deg
Mean anomaly:     170.0183 deg
Mean motion:   14.20388746 rev/day
Decay rate:        3.4e-07 rev/day^2
Epoch rev:           25377
Checksum:              306

Satellite: AO-51
Catalog number: 28375
Epoch time:      08142.58597216
Element set:     104
Inclination:      098.0728 deg
RA of node:       168.6509 deg
Eccentricity:    0.0082898
Arg of perigee:   233.6649 deg
Mean anomaly:     125.6874 deg
Mean motion:   14.40607830 rev/day
Decay rate:        1.5e-07 rev/day^2
Epoch rev:           20457
Checksum:              332

Satellite: CO-56
Catalog number: 28941
Epoch time:      08143.74471613
Element set:      77
Inclination:      098.1063 deg
RA of node:       250.9855 deg
Eccentricity:    0.0171286
Arg of perigee:   133.6184 deg
Mean anomaly:     227.9404 deg
Mean motion:   15.55874363 rev/day
Decay rate:     4.7128e-04 rev/day^2
Epoch rev:           12608
Checksum:              332

Satellite: CP4
Catalog number: 31122
Epoch time:      08143.58236760
Element set:     343
Inclination:      098.0437 deg
RA of node:       210.1234 deg
Eccentricity:    0.0086581
Arg of perigee:   050.3493 deg
Mean anomaly:     310.5312 deg
Mean motion:   14.55126225 rev/day
Decay rate:       5.52e-06 rev/day^2
Epoch rev:            5835
Checksum:              262

Satellite: CP3
Catalog number: 31128
Epoch time:      08142.66577123
Element set:    0338
Inclination:      098.0406 deg
RA of node:       207.2242 deg
Eccentricity:    0.0103846
Arg of perigee:   057.6237 deg
Mean anomaly:     303.4957 deg
Mean motion:   14.51945759 rev/day
Decay rate:       -4.6e-07 rev/day^2
Epoch rev:           05808
Checksum:              305

Satellite: LIBERT
Catalog number: 31129
Epoch time:      08143.67523408
Element set:     985
Inclination:      098.0418 deg
RA of node:       208.2318 deg
Eccentricity:    0.0103811
Arg of perigee:   054.1727 deg
Mean anomaly:     306.9028 deg
Mean motion:   14.52036529 rev/day
Decay rate:       3.40e-06 rev/day^2
Epoch rev:            5821
Checksum:              280

/EX
SB KEPS @ AMSAT  $ORB08143.W
Orbital Elements  08143.WEATHER

HR AMSAT ORBITAL ELEMENTS FOR WEATHER SATELLITES
FROM WA5QGD FORT WORTH,TX May 22, 2008
Send Subscribe/unsubscribe to KEPS at 
http://www.amsat.org/mailman/listinfo/keps
BID: ORB08143.W
TO ALL RADIO AMATEURS BT

Satellite: NOAA-10
Catalog number: 16969
Epoch time:      08142.79732728
Element set:    0128
Inclination:      098.7223 deg
RA of node:       164.8188 deg
Eccentricity:    0.0011435
Arg of perigee:   258.2533 deg
Mean anomaly:     101.7381 deg
Mean motion:   14.27359812 rev/day
Decay rate:        2.6e-07 rev/day^2
Epoch rev:           12767
Checksum:              317

